Volver al catálogo

SL-12 DEB

LostHEO
NORAD 43526·DEBRIS·🇷🇺 Russia

Lanzado Mar 1, 2010 desde Baikonur Cosmodrome

Loading…

Próximos Pases (próximas 24 horas)

TLE

ObsoletoSource: Space-Track

Época: May 2, 2019, 22:04 UTC

1 43526U 10007Y   19122.91970341  .00319504  00000-0  81965-1 0  9999
2 43526  65.2223  51.7766 5751711  33.2438 352.2901  4.39898364 13936

Sigue SL-12 DEB en tiempo real con AllMySat

Download on the App Store